GW3995 Weather Reports


time (UTC)temp
C
wind
direction
speed
KPH
gust
KPH
rain 1hr
cm
rain 24hr
cm
rain mn
cm
humidity
%
barometer
mb
20260505075917 13 0 0.0 0.0 0.00 0.00 0.00 77 1015.8
20260505075417 13 0 0.0 0.0 0.00 0.00 0.00 77 1015.8
20260505074917 13 0 0.0 0.0 0.00 0.00 0.00 76 1015.8
20260505074417 13 0 0.0 0.0 0.00 0.00 0.00 76 1015.7
20260505073917 13 44 1.6 1.6 0.00 0.00 0.00 77 1015.7
20260505073417 14 18 0.0 1.6 0.00 0.00 0.00 76 1015.6
20260505072917 14 23 0.0 1.6 0.00 0.00 0.00 76 1015.6
20260505072417 14 0 0.0 0.0 0.00 0.00 0.00 76 1015.6
20260505071917 14 28 0.0 3.2 0.00 0.00 0.00 76 1015.6
20260505071417 14 0 0.0 0.0 0.00 0.00 0.00 76 1015.6
20260505070917 14 0 0.0 0.0 0.00 0.00 0.00 76 1015.6
20260505070417 14 0 0.0 0.0 0.00 0.00 0.00 76 1015.6
20260505065917 15 0 0.0 0.0 0.00 0.00 0.00 75 1015.6
20260505065417 15 36 0.0 1.6 0.00 0.00 0.00 75 1015.5
20260505064917 15 30 0.0 1.6 0.00 0.00 0.00 76 1015.5
20260505064417 15 43 0.0 1.6 0.00 0.00 0.00 76 1015.5
20260505063917 15 89 0.0 0.0 0.00 0.00 0.00 76 1015.6
20260505063417 15 4 0.0 1.6 0.00 0.00 0.00 76 1015.5
20260505062917 15 332 1.6 3.2 0.00 0.00 0.00 75 1015.5
20260505062417 15 0 0.0 0.0 0.00 0.00 0.00 75 1015.4
20260505061917 15 39 0.0 1.6 0.00 0.00 0.00 75 1015.4
20260505061417 15 35 0.0 0.0 0.00 0.00 0.00 75 1015.4
20260505060918 15 48 0.0 0.0 0.00 0.00 0.00 75 1015.5
20260505060417 15 15 0.0 3.2 0.00 0.00 0.00 75 1015.5
20260505055918 15 27 0.0 1.6 0.00 0.00 0.00 75 1015.6
20260505055418 15 0 0.0 0.0 0.00 0.00 0.00 74 1015.6
20260505054918 15 38 1.6 3.2 0.00 0.00 0.00 73 1015.5
20260505054418 15 48 1.6 1.6 0.00 0.00 0.00 73 1015.6
20260505053919 15 22 1.6 1.6 0.00 0.00 0.00 73 1015.6
20260505053417 15 18 0.0 0.0 0.00 0.00 0.00 73 1015.6
20260505052917 15 329 0.0 1.6 0.00 0.00 0.00 72 1015.6
20260505052417 15 270 1.6 3.2 0.00 0.00 0.00 72 1015.7
20260505051917 15 327 0.0 0.0 0.00 0.00 0.00 71 1015.7
20260505051418 16 0 0.0 0.0 0.00 0.00 0.00 72 1015.8
20260505050917 16 284 0.0 0.0 0.00 0.00 0.00 72 1015.8
20260505050417 16 281 1.6 3.2 0.00 0.00 0.00 72 1015.8
20260505041418 16 338 0.0 1.6 0.00 0.00 0.00 70 1015.8
20260505040918 16 43 0.0 3.2 0.00 0.00 0.00 70 1015.7
20260505040417 16 56 0.0 0.0 0.00 0.00 0.00 70 1015.7
20260505035917 16 0 0.0 0.0 0.00 0.00 0.00 71 1015.7
20260505035417 16 0 0.0 0.0 0.00 0.00 0.00 71 1015.8
20260505034918 16 0 0.0 0.0 0.00 0.00 0.00 70 1015.8
20260505034417 16 313 0.0 3.2 0.00 0.00 0.00 70 1015.7
20260505033919 16 0 0.0 0.0 0.00 0.00 0.00 71 1015.7
20260505033417 17 0 0.0 0.0 0.00 0.00 0.00 69 1015.7
20260505032919 17 0 0.0 0.0 0.00 0.00 0.00 68 1015.7
20260505032417 17 0 0.0 0.0 0.00 0.00 0.00 68 1015.7
20260505031917 17 284 1.6 3.2 0.00 0.00 0.00 67 1015.7
20260505031417 17 0 3.2 3.2 0.00 0.00 0.00 67 1015.7
20260505030918 17 32 0.0 0.0 0.00 0.00 0.00 67 1015.6
20260505030418 17 0 0.0 0.0 0.00 0.00 0.00 67 1015.7
20260505025917 17 0 0.0 0.0 0.00 0.00 0.00 66 1015.7
20260505025418 17 99 0.0 0.0 0.00 0.00 0.00 66 1015.7
20260505024917 17 0 0.0 0.0 0.00 0.00 0.00 65 1015.7
20260505024417 17 0 0.0 0.0 0.00 0.00 0.00 64 1015.7
20260505023917 17 41 1.6 3.2 0.00 0.00 0.00 63 1015.6
20260505023417 17 356 1.6 1.6 0.00 0.00 0.00 63 1015.6
20260505022917 17 16 0.0 0.0 0.00 0.00 0.00 63 1015.6
20260505022417 17 291 1.6 3.2 0.00 0.00 0.00 60 1015.5
20260505021917 17 23 0.0 0.0 0.00 0.00 0.00 62 1015.5
20260505021418 17 34 0.0 1.6 0.00 0.00 0.00 62 1015.4
20260505020917 17 281 0.0 3.2 0.00 0.00 0.00 60 1015.4
20260505020417 17 287 0.0 1.6 0.00 0.00 0.00 61 1015.3
20260505015917 17 24 1.6 3.2 0.00 0.00 0.00 60 1015.3
20260505015418 17 0 0.0 0.0 0.00 0.00 0.00 59 1015.3
20260505014917 18 0 0.0 0.0 0.00 0.00 0.00 60 1015.3
20260505014417 18 18 0.0 0.0 0.00 0.00 0.00 59 1015.2
20260505013918 18 0 0.0 0.0 0.00 0.00 0.00 59 1015.1
20260505013417 18 0 0.0 0.0 0.00 0.00 0.00 52 1014.9
20260505012917 18 7 0.0 1.6 0.00 0.00 0.00 50 1014.8
20260505012417 18 15 0.0 0.0 0.00 0.00 0.00 52 1014.8
20260505011917 18 0 0.0 0.0 0.00 0.00 0.00 52 1014.7
20260505011417 18 61 0.0 1.6 0.00 0.00 0.00 51 1014.7
20260505010918 18 0 0.0 0.0 0.00 0.00 0.00 52 1014.5
20260505010417 18 41 0.0 0.0 0.00 0.00 0.00 54 1014.5
20260505005917 19 0 0.0 0.0 0.00 0.00 0.00 52 1014.5
20260505005417 19 0 0.0 0.0 0.00 0.00 0.00 52 1014.4
20260505004918 19 0 0.0 0.0 0.00 0.00 0.00 52 1014.3
20260505004417 19 37 0.0 1.6 0.00 0.00 0.00 54 1014.2
20260505003918 19 0 0.0 0.0 0.00 0.00 0.00 54 1014.2
20260505003417 20 0 0.0 0.0 0.00 0.00 0.00 52 1014.2
20260505002917 20 0 0.0 0.0 0.00 0.00 0.00 53 1014.0
20260505002417 20 51 0.0 1.6 0.00 0.00 0.00 52 1013.9
20260505001917 20 0 0.0 0.0 0.00 0.00 0.00 52 1013.9
20260505001417 20 0 0.0 0.0 0.00 0.00 0.00 48 1013.9
20260505000917 21 0 0.0 0.0 0.00 0.00 0.00 49 1013.9
20260505000417 21 0 0.0 0.0 0.00 0.00 0.00 48 1013.9
20260504235917 21 0 0.0 0.0 0.00 0.00 0.00 49 1013.8
20260504235418 21 51 0.0 1.6 0.00 0.00 0.00 48 1013.7
20260504234917 21 45 0.0 1.6 0.00 0.00 0.00 48 1013.7
20260504234417 21 258 0.0 1.6 0.00 0.00 0.00 47 1013.7
20260504233918 22 57 0.0 0.0 0.00 0.00 0.00 49 1013.6
20260504233417 22 277 0.0 3.2 0.00 0.00 0.00 47 1013.5
20260504232917 22 0 0.0 0.0 0.00 0.00 0.00 47 1013.5
20260504232417 22 35 1.6 3.2 0.00 0.00 0.00 46 1013.4
20260504231917 23 0 0.0 0.0 0.00 0.00 0.00 43 1013.4
20260504231418 23 0 0.0 0.0 0.00 0.00 0.00 41 1013.3
20260504230917 23 54 0.0 3.2 0.00 0.00 0.00 38 1013.3
20260504230417 24 43 1.6 3.2 0.00 0.00 0.00 36 1013.2
20260504225917 25 63 0.0 3.2 0.00 0.00 0.00 37 1013.2
20260504225417 25 153 0.0 3.2 0.00 0.00 0.00 34 1013.2
20260504224917 25 256 4.8 8.0 0.00 0.00 0.00 29 1013.2
20260504224417 25 56 0.0 3.2 0.00 0.00 0.00 36 1013.3
20260504223917 25 262 6.4 9.7 0.00 0.00 0.00 33 1013.2
20260504223417 25 86 0.0 1.6 0.00 0.00 0.00 38 1013.3
20260504222917 25 254 1.6 3.2 0.00 0.00 0.00 32 1013.2
20260504222417 25 248 3.2 6.4 0.00 0.00 0.00 29 1013.2
20260504221918 26 266 6.4 9.7 0.00 0.00 0.00 29 1013.2
20260504221417 26 250 3.2 8.0 0.00 0.00 0.00 29 1013.2
20260504220917 26 263 3.2 4.8 0.00 0.00 0.00 29 1013.3
20260504220419 26 256 3.2 6.4 0.00 0.00 0.00 28 1013.2
20260504215917 26 241 1.6 9.7 0.00 0.00 0.00 29 1013.2
20260504215418 27 230 4.8 8.0 0.00 0.00 0.00 28 1013.2
20260504214917 27 252 0.0 3.2 0.00 0.00 0.00 29 1013.3
20260504214417 26 255 3.2 6.4 0.00 0.00 0.00 30 1013.3
20260504213917 26 233 3.2 6.4 0.00 0.00 0.00 29 1013.3
20260504213418 27 260 6.4 9.7 0.00 0.00 0.00 28 1013.3
20260504212917 27 71 1.6 4.8 0.00 0.00 0.00 32 1013.4
20260504212417 27 218 1.6 4.8 0.00 0.00 0.00 29 1013.4
20260504211917 27 255 3.2 6.4 0.00 0.00 0.00 30 1013.5
20260504211417 27 238 1.6 6.4 0.00 0.00 0.00 33 1013.4
20260504210917 27 199 1.6 4.8 0.00 0.00 0.00 31 1013.4
20260504210417 27 244 3.2 6.4 0.00 0.00 0.00 31 1013.5
20260504205918 27 272 3.2 6.4 0.00 0.00 0.00 29 1013.4
20260504205417 27 243 1.6 4.8 0.00 0.00 0.00 29 1013.5
20260504204917 27 235 3.2 12.9 0.00 0.00 0.00 31 1013.6
20260504204417 26 257 0.0 6.4 0.00 0.00 0.00 35 1013.6
20260504203918 26 79 3.2 4.8 0.00 0.00 0.00 32 1013.5
20260504203417 26 228 3.2 4.8 0.00 0.00 0.00 31 1013.6
20260504202917 26 221 4.8 6.4 0.00 0.00 0.00 31 1013.7
20260504202417 27 92 1.6 3.2 0.00 0.00 0.00 32 1013.7
20260504201917 27 72 4.8 8.0 0.00 0.00 0.00 31 1013.7
20260504201418 27 47 4.8 6.4 0.00 0.00 0.00 33 1013.7
20260504200918 27 48 3.2 3.2 0.00 0.00 0.00 33 1013.9
20260504200417 26 50 1.6 3.2 0.00 0.00 0.00 32 1013.9
20260504195919 26 220 3.2 6.4 0.00 0.00 0.00 31 1013.9
20260504195419 26 242 4.8 6.4 0.00 0.00 0.00 32 1013.9
20260504194917 26 244 3.2 9.7 0.00 0.00 0.00 32 1014.0
20260504194417 27 219 3.2 3.2 0.00 0.00 0.00 31 1014.2
20260504193918 27 264 4.8 8.0 0.00 0.00 0.00 30 1014.2
20260504193417 26 251 3.2 9.7 0.00 0.00 0.00 31 1014.2
20260504192918 26 235 1.6 8.0 0.00 0.00 0.00 32 1014.2
20260504192420 26 156 3.2 3.2 0.00 0.00 0.00 32 1014.2
20260504191917 26 220 3.2 4.8 0.00 0.00 0.00 32 1014.3
20260504191418 26 46 3.2 3.2 0.00 0.00 0.00 33 1014.4
20260504190917 26 169 4.8 8.0 0.00 0.00 0.00 31 1014.5
20260504190417 26 46 1.6 3.2 0.00 0.00 0.00 32 1014.6
20260504185917 26 192 3.2 6.4 0.00 0.00 0.00 32 1014.7
20260504185417 26 158 3.2 8.0 0.00 0.00 0.00 31 1014.7
20260504184920 26 227 3.2 6.4 0.00 0.00 0.00 31 1014.7
20260504184417 26 218 4.8 8.0 0.00 0.00 0.00 33 1015.0
20260504183917 25 118 3.2 6.4 0.00 0.00 0.00 33 1015.1
20260504183418 25 37 3.2 4.8 0.00 0.00 0.00 32 1015.0
20260504182917 25 198 3.2 6.4 0.00 0.00 0.00 35 1014.9
20260504182418 25 140 1.6 3.2 0.00 0.00 0.00 32 1015.0
20260504181917 25 203 3.2 4.8 0.00 0.00 0.00 31 1015.0
20260504181419 25 135 1.6 4.8 0.00 0.00 0.00 33 1015.1
20260504180917 25 111 0.0 3.2 0.00 0.00 0.00 36 1015.2
20260504180417 25 228 4.8 8.0 0.00 0.00 0.00 32 1015.2
20260504175918 25 190 3.2 8.0 0.00 0.00 0.00 33 1015.1
20260504175417 25 130 3.2 6.4 0.00 0.00 0.00 37 1015.2
20260504174917 25 53 3.2 4.8 0.00 0.00 0.00 34 1015.3
20260504174417 24 53 0.0 3.2 0.00 0.00 0.00 37 1015.3
20260504173917 23 83 0.0 3.2 0.00 0.00 0.00 37 1015.3
20260504173418 23 198 1.6 4.8 0.00 0.00 0.00 37 1015.5
20260504172918 23 183 1.6 6.4 0.00 0.00 0.00 38 1015.6
20260504172417 23 69 3.2 6.4 0.00 0.00 0.00 43 1015.7
20260504171917 23 78 3.2 6.4 0.00 0.00 0.00 41 1015.8
20260504171417 23 266 3.2 6.4 0.00 0.00 0.00 42 1016.0
20260504170919 23 219 3.2 4.8 0.00 0.00 0.00 42 1016.1
20260504170417 22 246 3.2 4.8 0.00 0.00 0.00 38 1016.1
20260504160418 22 258 6.4 11.3 0.00 0.00 0.00 42 1016.9
20260504150917 21 0 0.0 0.0 0.00 0.00 0.00 50 1017.0
20260504150418 20 0 0.0 0.0 0.00 0.00 0.00 52 1017.1
20260504140917 18 0 0.0 0.0 0.00 0.00 0.00 61 1017.3
20260504140417 17 268 1.6 4.8 0.00 0.00 0.00 61 1017.2
20260504130417 13 243 1.6 3.2 0.00 0.00 0.00 78 1017.5
20260504110417 6 0 0.0 0.0 0.00 0.00 0.00 95 1017.6
20260504100418 6 0 0.0 0.0 0.00 0.00 0.00 94 1017.4
20260504081922 7 0 0.0 0.0 0.00 0.00 0.00 89 1017.4
20260504081417 7 0 0.0 0.0 0.00 0.00 0.00 89 1017.4
20260504080918 7 0 0.0 0.0 0.00 0.00 0.00 89 1017.4
20260504080417 7 0 0.0 0.0 0.00 0.00 0.00 89 1017.4